| time (UTC) | temp C | wind direction | speed KPH | gust KPH | rain 1hr cm | rain 24hr cm | rain mn cm | humidity % | barometer mb |
| 20260503050541 | 11 | 0 | 0.0 | 3.2 | 0.00 | 0.00 | 0.00 | 52 | 1010.9 |
| 20260503050048 | 11 | 0 | 0.0 | 3.2 | 0.00 | 0.00 | 0.00 | 53 | 1010.9 |
| 20260503045541 | 11 | 0 | 0.0 | 3.2 | 0.00 | 0.00 | 0.00 | 54 | 1010.9 |
| 20260503045042 | 11 | 0 | 0.0 | 3.2 | 0.00 | 0.00 | 0.00 | 54 | 1010.9 |
| 20260503044555 | 11 | 0 | 0.0 | 3.2 | 0.00 | 0.00 | 0.00 | 55 | 1011.0 |
| 20260503044039 | 11 | 0 | 0.0 | 4.8 | 0.00 | 0.00 | 0.00 | 56 | 1011.0 |
| 20260503043542 | 11 | 0 | 0.0 | 4.8 | 0.00 | 0.00 | 0.00 | 58 | 1011.1 |
| 20260503043049 | 10 | 0 | 0.0 | 3.2 | 0.00 | 0.00 | 0.00 | 60 | 1011.1 |
| 20260503042542 | 10 | 0 | 0.0 | 3.2 | 0.00 | 0.00 | 0.00 | 64 | 1011.1 |
| 20260503042044 | 10 | 0 | 0.0 | 1.6 | 0.00 | 0.00 | 0.00 | 64 | 1011.2 |
| 20260503041549 | 10 | 0 | 0.0 | 0.0 | 0.00 | 0.00 | 0.00 | 67 | 1011.1 |
| 20260503041044 | 10 | 0 | 0.0 | 0.0 | 0.00 | 0.00 | 0.00 | 67 | 1011.2 |
| 20260503040542 | 10 | 0 | 0.0 | 0.0 | 0.00 | 0.00 | 0.00 | 68 | 1011.3 |
| 20260503040048 | 10 | 0 | 0.0 | 0.0 | 0.00 | 0.00 | 0.00 | 66 | 1011.3 |
| 20260503035544 | 10 | 0 | 0.0 | 0.0 | 0.00 | 0.00 | 0.00 | 66 | 1011.4 |
| 20260503035045 | 10 | 0 | 0.0 | 3.2 | 0.00 | 0.00 | 0.00 | 66 | 1011.3 |
| 20260503034550 | 10 | 0 | 0.0 | 3.2 | 0.00 | 0.00 | 0.00 | 67 | 1011.4 |
| 20260503034043 | 10 | 0 | 1.6 | 3.2 | 0.00 | 0.00 | 0.00 | 67 | 1011.5 |
| 20260503033544 | 10 | 0 | 0.0 | 0.0 | 0.00 | 0.00 | 0.00 | 67 | 1011.6 |
| 20260503033049 | 10 | 0 | 0.0 | 0.0 | 0.00 | 0.00 | 0.00 | 67 | 1011.6 |
| 20260503032543 | 10 | 0 | 0.0 | 0.0 | 0.00 | 0.00 | 0.00 | 65 | 1011.6 |
| 20260503032043 | 10 | 0 | 0.0 | 0.0 | 0.00 | 0.00 | 0.00 | 65 | 1011.8 |
| 20260503031557 | 10 | 0 | 0.0 | 0.0 | 0.00 | 0.00 | 0.00 | 64 | 1011.7 |
| 20260503031041 | 10 | 0 | 0.0 | 0.0 | 0.00 | 0.00 | 0.00 | 64 | 1011.9 |
| 20260503030543 | 10 | 0 | 0.0 | 0.0 | 0.00 | 0.00 | 0.00 | 63 | 1011.9 |
| 20260503030050 | 10 | 0 | 0.0 | 0.0 | 0.00 | 0.00 | 0.00 | 63 | 1011.9 |
| 20260503025543 | 11 | 0 | 0.0 | 0.0 | 0.00 | 0.00 | 0.00 | 63 | 1012.0 |
| 20260503025043 | 11 | 0 | 0.0 | 0.0 | 0.00 | 0.00 | 0.00 | 62 | 1012.0 |
| 20260503024548 | 11 | 0 | 0.0 | 0.0 | 0.00 | 0.00 | 0.00 | 62 | 1012.0 |
| 20260503024043 | 11 | 0 | 0.0 | 0.0 | 0.00 | 0.00 | 0.00 | 61 | 1012.0 |
| 20260503023543 | 11 | 0 | 0.0 | 0.0 | 0.00 | 0.00 | 0.00 | 59 | 1012.0 |
| 20260503023050 | 11 | 0 | 0.0 | 3.2 | 0.00 | 0.00 | 0.00 | 58 | 1012.1 |
| 20260503022543 | 12 | 0 | 0.0 | 3.2 | 0.00 | 0.00 | 0.00 | 58 | 1012.1 |
| 20260503022043 | 12 | 216 | 1.6 | 3.2 | 0.00 | 0.00 | 0.00 | 57 | 1012.1 |
| 20260503021550 | 12 | 0 | 0.0 | 3.2 | 0.00 | 0.00 | 0.00 | 56 | 1012.1 |
| 20260503021044 | 12 | 0 | 1.6 | 3.2 | 0.00 | 0.00 | 0.00 | 54 | 1012.1 |
| 20260503020543 | 12 | 0 | 0.0 | 3.2 | 0.00 | 0.00 | 0.00 | 52 | 1012.1 |
| 20260503020056 | 13 | 0 | 0.0 | 3.2 | 0.00 | 0.00 | 0.00 | 52 | 1012.1 |
| 20260503015543 | 13 | 0 | 0.0 | 1.6 | 0.00 | 0.00 | 0.00 | 50 | 1012.0 |
| 20260503015042 | 13 | 0 | 0.0 | 1.6 | 0.00 | 0.00 | 0.00 | 51 | 1012.0 |
| 20260503014555 | 13 | 0 | 0.0 | 1.6 | 0.00 | 0.00 | 0.00 | 48 | 1012.0 |
| 20260503014042 | 14 | 0 | 0.0 | 1.6 | 0.00 | 0.00 | 0.00 | 48 | 1012.0 |
| 20260503013543 | 14 | 0 | 0.0 | 1.6 | 0.00 | 0.00 | 0.00 | 45 | 1012.0 |
| 20260503013053 | 15 | 0 | 0.0 | 1.6 | 0.00 | 0.00 | 0.00 | 45 | 1012.0 |
| 20260503012543 | 15 | 0 | 0.0 | 1.6 | 0.00 | 0.00 | 0.00 | 44 | 1012.0 |
| 20260503012059 | 15 | 0 | 0.0 | 0.0 | 0.00 | 0.00 | 0.00 | 43 | 1012.0 |
| 20260503011550 | 15 | 0 | 0.0 | 1.6 | 0.00 | 0.00 | 0.00 | 42 | 1012.0 |
| 20260503011042 | 15 | 0 | 0.0 | 1.6 | 0.00 | 0.00 | 0.00 | 40 | 1012.1 |
| 20260503010544 | 15 | 0 | 0.0 | 4.8 | 0.00 | 0.00 | 0.00 | 39 | 1012.1 |
| 20260503010051 | 15 | 216 | 0.0 | 4.8 | 0.00 | 0.00 | 0.00 | 38 | 1012.1 |
| 20260503005542 | 15 | 229 | 0.0 | 4.8 | 0.00 | 0.00 | 0.00 | 38 | 1012.1 |
| 20260503005043 | 16 | 0 | 1.6 | 9.7 | 0.00 | 0.00 | 0.00 | 38 | 1012.2 |
| 20260503004547 | 16 | 248 | 1.6 | 9.7 | 0.00 | 0.00 | 0.00 | 37 | 1012.2 |
| 20260503004042 | 16 | 256 | 3.2 | 8.0 | 0.00 | 0.00 | 0.00 | 37 | 1012.1 |
| 20260503003543 | 16 | 221 | 3.2 | 8.0 | 0.00 | 0.00 | 0.00 | 36 | 1012.2 |
| 20260503003050 | 16 | 258 | 1.6 | 8.0 | 0.00 | 0.00 | 0.00 | 37 | 1012.2 |
| 20260503002542 | 16 | 215 | 4.8 | 8.0 | 0.00 | 0.00 | 0.00 | 36 | 1012.3 |
| 20260503002042 | 16 | 233 | 3.2 | 16.1 | 0.00 | 0.00 | 0.00 | 37 | 1012.2 |
| 20260503001608 | 16 | 250 | 4.8 | 16.1 | 0.00 | 0.00 | 0.00 | 36 | 1012.3 |
| 20260503001043 | 16 | 263 | 4.8 | 14.5 | 0.00 | 0.00 | 0.00 | 35 | 1012.4 |
| 20260503000543 | 16 | 286 | 6.4 | 17.7 | 0.00 | 0.00 | 0.00 | 34 | 1012.4 |
| 20260503000113 | 16 | 258 | 8.0 | 17.7 | 0.00 | 0.00 | 0.00 | 34 | 1012.3 |
| 20260502235545 | 16 | 313 | 9.7 | 17.7 | 0.00 | 0.00 | 0.00 | 36 | 1012.4 |
| 20260502235043 | 16 | 238 | 8.0 | 17.7 | 0.00 | 0.00 | 0.00 | 34 | 1012.4 |
| 20260502234554 | 16 | 265 | 6.4 | 17.7 | 0.00 | 0.00 | 0.00 | 35 | 1012.5 |
| 20260502234043 | 16 | 212 | 4.8 | 14.5 | 0.00 | 0.00 | 0.00 | 36 | 1012.5 |
| 20260502233543 | 16 | 276 | 6.4 | 12.9 | 0.00 | 0.00 | 0.00 | 34 | 1012.7 |
| 20260502233048 | 17 | 268 | 4.8 | 12.9 | 0.00 | 0.00 | 0.00 | 33 | 1012.7 |
| 20260502232542 | 17 | 195 | 4.8 | 14.5 | 0.00 | 0.00 | 0.00 | 33 | 1012.7 |
| 20260502232042 | 17 | 0 | 6.4 | 17.7 | 0.00 | 0.00 | 0.00 | 32 | 1012.7 |
| 20260502231615 | 17 | 243 | 6.4 | 19.3 | 0.00 | 0.00 | 0.00 | 32 | 1012.8 |
| 20260502231042 | 17 | 262 | 9.7 | 19.3 | 0.00 | 0.00 | 0.00 | 32 | 1012.8 |
| 20260502230542 | 17 | 243 | 8.0 | 24.1 | 0.00 | 0.00 | 0.00 | 31 | 1012.8 |
| 20260502230047 | 17 | 257 | 9.7 | 24.1 | 0.00 | 0.00 | 0.00 | 31 | 1012.8 |
| 20260502225543 | 17 | 238 | 11.3 | 24.1 | 0.00 | 0.00 | 0.00 | 31 | 1012.9 |
| 20260502225042 | 17 | 229 | 9.7 | 25.7 | 0.00 | 0.00 | 0.00 | 30 | 1013.0 |
| 20260502224556 | 17 | 202 | 12.9 | 25.7 | 0.00 | 0.00 | 0.00 | 31 | 1013.1 |
| 20260502224043 | 17 | 232 | 9.7 | 24.1 | 0.00 | 0.00 | 0.00 | 32 | 1013.2 |
| 20260502223543 | 17 | 236 | 6.4 | 24.1 | 0.00 | 0.00 | 0.00 | 32 | 1013.2 |
| 20260502223049 | 17 | 216 | 11.3 | 24.1 | 0.00 | 0.00 | 0.00 | 32 | 1013.2 |
| 20260502222542 | 17 | 211 | 9.7 | 20.9 | 0.00 | 0.00 | 0.00 | 32 | 1013.2 |
| 20260502222041 | 17 | 259 | 6.4 | 17.7 | 0.00 | 0.00 | 0.00 | 33 | 1013.3 |
| 20260502221556 | 17 | 245 | 6.4 | 16.1 | 0.00 | 0.00 | 0.00 | 32 | 1013.4 |
| 20260502221042 | 17 | 257 | 8.0 | 24.1 | 0.00 | 0.00 | 0.00 | 31 | 1013.5 |
| 20260502220543 | 17 | 229 | 12.9 | 24.1 | 0.00 | 0.00 | 0.00 | 32 | 1013.5 |
| 20260502220053 | 17 | 229 | 9.7 | 24.1 | 0.00 | 0.00 | 0.00 | 30 | 1013.5 |
| 20260502215543 | 17 | 218 | 12.9 | 24.1 | 0.00 | 0.00 | 0.00 | 30 | 1013.6 |
| 20260502215043 | 17 | 230 | 11.3 | 22.5 | 0.00 | 0.00 | 0.00 | 30 | 1013.6 |
| 20260502214555 | 17 | 241 | 6.4 | 17.7 | 0.00 | 0.00 | 0.00 | 29 | 1013.6 |
| 20260502214042 | 17 | 284 | 8.0 | 20.9 | 0.00 | 0.00 | 0.00 | 30 | 1013.6 |
| 20260502213542 | 17 | 236 | 9.7 | 20.9 | 0.00 | 0.00 | 0.00 | 30 | 1013.7 |
| 20260502213056 | 17 | 277 | 11.3 | 20.9 | 0.00 | 0.00 | 0.00 | 29 | 1013.8 |
| 20260502212546 | 17 | 238 | 6.4 | 19.3 | 0.00 | 0.00 | 0.00 | 30 | 1013.8 |
| 20260502212042 | 17 | 275 | 8.0 | 22.5 | 0.00 | 0.00 | 0.00 | 31 | 1013.9 |
| 20260502211551 | 17 | 212 | 11.3 | 22.5 | 0.00 | 0.00 | 0.00 | 31 | 1013.9 |
| 20260502211041 | 17 | 249 | 12.9 | 20.9 | 0.00 | 0.00 | 0.00 | 29 | 1014.0 |
| 20260502210540 | 17 | 196 | 6.4 | 25.7 | 0.00 | 0.00 | 0.00 | 30 | 1014.1 |
| 20260502210054 | 17 | 261 | 11.3 | 25.7 | 0.00 | 0.00 | 0.00 | 29 | 1014.1 |
| 20260502205546 | 17 | 252 | 12.9 | 25.7 | 0.00 | 0.00 | 0.00 | 33 | 1014.3 |
| 20260502205042 | 17 | 242 | 8.0 | 17.7 | 0.00 | 0.00 | 0.00 | 30 | 1014.2 |
| 20260502204554 | 17 | 302 | 9.7 | 30.6 | 0.00 | 0.00 | 0.00 | 30 | 1014.3 |
| 20260502204044 | 17 | 267 | 11.3 | 30.6 | 0.00 | 0.00 | 0.00 | 29 | 1014.4 |
| 20260502203543 | 17 | 228 | 12.9 | 25.7 | 0.00 | 0.00 | 0.00 | 29 | 1014.6 |
| 20260502203055 | 17 | 252 | 9.7 | 24.1 | 0.00 | 0.00 | 0.00 | 29 | 1014.6 |
| 20260502202540 | 17 | 232 | 12.9 | 24.1 | 0.00 | 0.00 | 0.00 | 32 | 1014.7 |
| 20260502202042 | 17 | 246 | 11.3 | 22.5 | 0.00 | 0.00 | 0.00 | 30 | 1014.7 |
| 20260502201604 | 17 | 242 | 9.7 | 22.5 | 0.00 | 0.00 | 0.00 | 30 | 1014.9 |
| 20260502201043 | 17 | 299 | 8.0 | 19.3 | 0.00 | 0.00 | 0.00 | 32 | 1014.9 |
| 20260502200543 | 16 | 263 | 6.4 | 22.5 | 0.00 | 0.00 | 0.00 | 32 | 1015.0 |
| 20260502200050 | 16 | 257 | 11.3 | 22.5 | 0.00 | 0.00 | 0.00 | 31 | 1015.1 |
| 20260502195541 | 17 | 254 | 11.3 | 19.3 | 0.00 | 0.00 | 0.00 | 31 | 1015.2 |
| 20260502195043 | 16 | 234 | 8.0 | 19.3 | 0.00 | 0.00 | 0.00 | 32 | 1015.3 |
| 20260502194604 | 16 | 264 | 9.7 | 22.5 | 0.00 | 0.00 | 0.00 | 31 | 1015.4 |
| 20260502194043 | 16 | 314 | 11.3 | 22.5 | 0.00 | 0.00 | 0.00 | 32 | 1015.5 |
| 20260502193541 | 16 | 198 | 9.7 | 27.4 | 0.00 | 0.00 | 0.00 | 33 | 1015.5 |
| 20260502193104 | 16 | 275 | 9.7 | 27.4 | 0.00 | 0.00 | 0.00 | 30 | 1015.6 |
| 20260502192542 | 16 | 224 | 12.9 | 27.4 | 0.00 | 0.00 | 0.00 | 31 | 1015.6 |
| 20260502192043 | 16 | 240 | 11.3 | 20.9 | 0.00 | 0.00 | 0.00 | 31 | 1015.7 |
| 20260502191600 | 16 | 280 | 9.7 | 24.1 | 0.00 | 0.00 | 0.00 | 33 | 1015.8 |
| 20260502191131 | 16 | 236 | 6.4 | 24.1 | 0.00 | 0.00 | 0.00 | 34 | 1015.9 |
| 20260502190542 | 16 | 219 | 12.9 | 24.1 | 0.00 | 0.00 | 0.00 | 33 | 1016.0 |
| 20260502190051 | 15 | 192 | 4.8 | 20.9 | 0.00 | 0.00 | 0.00 | 35 | 1016.0 |
| 20260502185541 | 15 | 280 | 4.8 | 20.9 | 0.00 | 0.00 | 0.00 | 34 | 1016.1 |
| 20260502185042 | 15 | 295 | 12.9 | 22.5 | 0.00 | 0.00 | 0.00 | 31 | 1016.1 |
| 20260502184559 | 16 | 270 | 6.4 | 25.7 | 0.00 | 0.00 | 0.00 | 33 | 1016.1 |
| 20260502184042 | 16 | 208 | 11.3 | 25.7 | 0.00 | 0.00 | 0.00 | 33 | 1016.2 |
| 20260502183541 | 15 | 264 | 11.3 | 17.7 | 0.00 | 0.00 | 0.00 | 33 | 1016.4 |
| 20260502183048 | 15 | 259 | 6.4 | 16.1 | 0.00 | 0.00 | 0.00 | 33 | 1016.4 |
| 20260502182543 | 15 | 261 | 3.2 | 19.3 | 0.00 | 0.00 | 0.00 | 33 | 1016.4 |
| 20260502182042 | 15 | 237 | 11.3 | 19.3 | 0.00 | 0.00 | 0.00 | 32 | 1016.5 |
| 20260502181553 | 15 | 306 | 6.4 | 17.7 | 0.00 | 0.00 | 0.00 | 38 | 1016.5 |
| 20260502181041 | 15 | 243 | 8.0 | 27.4 | 0.00 | 0.00 | 0.00 | 36 | 1016.5 |
| 20260502180541 | 15 | 360 | 9.7 | 27.4 | 0.00 | 0.00 | 0.00 | 34 | 1016.6 |
| 20260502164041 | 13 | 266 | 8.0 | 24.1 | 0.00 | 0.00 | 0.00 | 35 | 1017.4 |
| 20260502163541 | 13 | 260 | 11.3 | 27.4 | 0.00 | 0.00 | 0.00 | 35 | 1017.6 |
| 20260502163052 | 13 | 337 | 12.9 | 27.4 | 0.00 | 0.00 | 0.00 | 37 | 1017.6 |
| 20260502162546 | 13 | 334 | 9.7 | 27.4 | 0.00 | 0.00 | 0.00 | 37 | 1017.6 |
| 20260502162042 | 13 | 315 | 9.7 | 22.5 | 0.00 | 0.00 | 0.00 | 37 | 1017.8 |
| 20260502161612 | 12 | 315 | 9.7 | 25.7 | 0.00 | 0.00 | 0.00 | 37 | 1017.7 |
| 20260502161041 | 12 | 306 | 11.3 | 27.4 | 0.00 | 0.00 | 0.00 | 37 | 1017.8 |
| 20260502160542 | 12 | 329 | 11.3 | 27.4 | 0.00 | 0.00 | 0.00 | 39 | 1018.0 |
| 20260502160113 | 12 | 347 | 11.3 | 24.1 | 0.00 | 0.00 | 0.00 | 39 | 1018.0 |
| 20260502152043 | 10 | 178 | 3.2 | 8.0 | 0.00 | 0.00 | 0.00 | 51 | 1018.2 |
| 20260502151551 | 10 | 165 | 0.0 | 6.4 | 0.00 | 0.00 | 0.00 | 52 | 1018.3 |
| 20260502151042 | 10 | 213 | 0.0 | 8.0 | 0.00 | 0.00 | 0.00 | 53 | 1018.3 |
| 20260502150542 | 10 | 157 | 1.6 | 8.0 | 0.00 | 0.00 | 0.00 | 52 | 1018.4 |
| 20260502130542 | 3 | 0 | 1.6 | 6.4 | 0.00 | 0.00 | 0.00 | 84 | 1019.3 |
| 20260502130110 | 3 | 0 | 0.0 | 6.4 | 0.00 | 0.00 | 0.00 | 85 | 1019.3 |
| 20260502123541 | 2 | 0 | 0.0 | 3.2 | 0.00 | 0.00 | 0.00 | 89 | 1019.2 |
| 20260502123119 | 2 | 57 | 0.0 | 0.0 | 0.00 | 0.00 | 0.00 | 89 | 1019.2 |
| 20260502122543 | 1 | 0 | 0.0 | 0.0 | 0.00 | 0.00 | 0.00 | 90 | 1019.2 |
| 20260502122041 | 1 | 0 | 0.0 | 0.0 | 0.00 | 0.00 | 0.00 | 89 | 1019.2 |
| 20260502121550 | 1 | 0 | 0.0 | 0.0 | 0.00 | 0.00 | 0.00 | 89 | 1019.2 |
| 20260502121042 | 1 | 0 | 0.0 | 0.0 | 0.00 | 0.00 | 0.00 | 89 | 1019.1 |
| 20260502120541 | 0 | 0 | 0.0 | 3.2 | 0.00 | 0.00 | 0.00 | 89 | 1019.1 |
| 20260502115542 | 0 | 0 | 0.0 | 3.2 | 0.00 | 0.00 | 0.00 | 88 | 1019.0 |
| 20260502115042 | 0 | 0 | 0.0 | 0.0 | 0.00 | 0.00 | 0.00 | 88 | 1019.0 |
| 20260502114548 | 0 | 0 | 0.0 | 0.0 | 0.00 | 0.00 | 0.00 | 88 | 1019.0 |
| 20260502114042 | 0 | 0 | 0.0 | 0.0 | 0.00 | 0.00 | 0.00 | 88 | 1019.1 |
| 20260502113542 | 0 | 0 | 0.0 | 0.0 | 0.00 | 0.00 | 0.00 | 87 | 1018.9 |
| 20260502113047 | 0 | 0 | 0.0 | 0.0 | 0.00 | 0.00 | 0.00 | 87 | 1018.9 |
| 20260502112541 | 0 | 0 | 0.0 | 3.2 | 0.00 | 0.00 | 0.00 | 87 | 1018.9 |
| 20260502112041 | 0 | 0 | 0.0 | 3.2 | 0.00 | 0.00 | 0.00 | 87 | 1018.8 |
| 20260502111553 | 0 | 0 | 0.0 | 3.2 | 0.00 | 0.00 | 0.00 | 87 | 1018.8 |
| 20260502111046 | 0 | 0 | 0.0 | 0.0 | 0.00 | 0.00 | 0.00 | 86 | 1018.8 |
| 20260502110541 | 0 | 0 | 0.0 | 0.0 | 0.00 | 0.00 | 0.00 | 86 | 1018.8 |
| 20260502110050 | 0 | 0 | 0.0 | 0.0 | 0.00 | 0.00 | 0.00 | 86 | 1018.8 |
| 20260502105540 | 0 | 0 | 0.0 | 0.0 | 0.00 | 0.00 | 0.00 | 86 | 1018.8 |
| 20260502105042 | 0 | 0 | 0.0 | 0.0 | 0.00 | 0.00 | 0.00 | 85 | 1018.8 |
| 20260502104549 | 0 | 0 | 0.0 | 1.6 | 0.00 | 0.00 | 0.00 | 85 | 1018.9 |
| 20260502104044 | 0 | 0 | 0.0 | 1.6 | 0.00 | 0.00 | 0.00 | 85 | 1018.9 |
| 20260502103542 | 0 | 0 | 0.0 | 0.0 | 0.00 | 0.00 | 0.00 | 85 | 1018.8 |
| 20260502103049 | 0 | 0 | 0.0 | 0.0 | 0.00 | 0.00 | 0.00 | 85 | 1018.9 |
| 20260502102542 | 0 | 0 | 0.0 | 0.0 | 0.00 | 0.00 | 0.00 | 85 | 1018.9 |
| 20260502102041 | 0 | 0 | 0.0 | 1.6 | 0.00 | 0.00 | 0.00 | 84 | 1018.9 |
| 20260502101555 | 0 | 0 | 0.0 | 1.6 | 0.00 | 0.00 | 0.00 | 84 | 1018.8 |
| 20260502101045 | 0 | 0 | 0.0 | 1.6 | 0.00 | 0.00 | 0.00 | 84 | 1018.9 |
| 20260502100541 | 0 | 0 | 0.0 | 0.0 | 0.00 | 0.00 | 0.00 | 84 | 1018.9 |
| 20260502091040 | 0 | 0 | 0.0 | 0.0 | 0.00 | 0.00 | 0.00 | 81 | 1018.9 |
| 20260502090541 | 0 | 0 | 0.0 | 0.0 | 0.00 | 0.00 | 0.00 | 81 | 1018.9 |
| 20260502071042 | 0 | 0 | 0.0 | 3.2 | 0.00 | 0.00 | 0.00 | 79 | 1019.0 |
| 20260502070543 | 0 | 0 | 0.0 | 1.6 | 0.00 | 0.00 | 0.00 | 78 | 1019.0 |
| 20260502070048 | 0 | 0 | 0.0 | 0.0 | 0.00 | 0.00 | 0.00 | 78 | 1018.9 |
| 20260502065542 | 0 | 0 | 0.0 | 0.0 | 0.00 | 0.00 | 0.00 | 78 | 1019.0 |
| 20260502065042 | 1 | 0 | 0.0 | 0.0 | 0.00 | 0.00 | 0.00 | 78 | 1019.0 |
| 20260502064547 | 1 | 0 | 0.0 | 0.0 | 0.00 | 0.00 | 0.00 | 77 | 1019.0 |
| 20260502064042 | 1 | 0 | 0.0 | 0.0 | 0.00 | 0.00 | 0.00 | 77 | 1019.0 |
| 20260502063543 | 1 | 0 | 0.0 | 0.0 | 0.00 | 0.00 | 0.00 | 77 | 1019.0 |
| 20260502063059 | 1 | 0 | 0.0 | 0.0 | 0.00 | 0.00 | 0.00 | 77 | 1019.0 |
| 20260502062542 | 1 | 0 | 0.0 | 0.0 | 0.00 | 0.00 | 0.00 | 77 | 1019.0 |
| 20260502062045 | 1 | 0 | 0.0 | 0.0 | 0.00 | 0.00 | 0.00 | 76 | 1019.0 |
| 20260502061548 | 1 | 0 | 0.0 | 0.0 | 0.00 | 0.00 | 0.00 | 76 | 1019.0 |
| 20260502061042 | 1 | 0 | 0.0 | 0.0 | 0.00 | 0.00 | 0.00 | 76 | 1019.1 |
| 20260502060544 | 1 | 0 | 0.0 | 0.0 | 0.00 | 0.00 | 0.00 | 76 | 1019.1 |
| 20260502060111 | 1 | 0 | 0.0 | 0.0 | 0.00 | 0.00 | 0.00 | 75 | 1019.1 |
| 20260502055543 | 1 | 0 | 0.0 | 0.0 | 0.00 | 0.00 | 0.00 | 75 | 1019.0 |
| 20260502055045 | 1 | 0 | 0.0 | 1.6 | 0.00 | 0.00 | 0.00 | 74 | 1019.0 |
| 20260502054555 | 1 | 0 | 0.0 | 1.6 | 0.00 | 0.00 | 0.00 | 75 | 1019.1 |
| 20260502054043 | 1 | 0 | 0.0 | 1.6 | 0.00 | 0.00 | 0.00 | 74 | 1019.0 |
| 20260502053542 | 1 | 0 | 0.0 | 0.0 | 0.00 | 0.00 | 0.00 | 74 | 1019.0 |
| 20260502053050 | 1 | 0 | 0.0 | 0.0 | 0.00 | 0.00 | 0.00 | 73 | 1019.0 |
| 20260502052543 | 1 | 0 | 0.0 | 0.0 | 0.00 | 0.00 | 0.00 | 73 | 1018.9 |
| 20260502052045 | 2 | 0 | 0.0 | 0.0 | 0.00 | 0.00 | 0.00 | 73 | 1018.9 |
| 20260502051553 | 2 | 0 | 0.0 | 0.0 | 0.00 | 0.00 | 0.00 | 73 | 1019.0 |
| 20260502051043 | 2 | 0 | 0.0 | 0.0 | 0.00 | 0.00 | 0.00 | 72 | 1018.9 |
| 20260502050544 | 2 | 0 | 0.0 | 0.0 | 0.00 | 0.00 | 0.00 | 72 | 1018.9 |